Погода в Кацуге

Погода в Кацуге : погода сейчас, прогноз погоды и архив. Всё, что Вы хотите узнать о погоде в Кацуге!

Поиск расширенной информации на нашем сайте:

Другие новости

Новости СМИ2

Главная страница сайта

Новости сайта

03.07.2017

Напоминаем, что на нашем специализированном сайте Метеоцентр.Азия вы можете получить высокодетализированные автоматические прогнозы погоды по пунктам России, СНГ и мира в авиационном формате (включающие направление и скорость ветра, видимость, явления погоды, количество и форму облачности, нижнюю и верхнюю границу облачности).


Погода в Кацуге - сегодня

Время (UTC), дата Ветер
(°,м/с) 
Видим.   Явления Облачность Т
(°С)
Тd
(°С)
f(%) Тe
(°С)
Pmin
(гПа)
dP
(гПа)
Po
(мм)
O2
(г/м3)
Тmin Tmax R s Состояние
почвы
00 12.12.17 тихо ()   н/о    ясно 
-38 -42.4 63 -38  1046.3  -0.3  728  343  -40.6      21  неравномерный
сухой снег
100% 
03 12.12.17 тихо ()   20000 м    ясно 
-36.4 -40.6 65 -36  1044.8  -0.8  727  340           
06 12.12.17 170 (Ю) 20000 м    ясно 
-32.9 -37.3 65 -34  1041.1  -2.5  725  334           
09 12.12.17 тихо ()   20000 м    8/0 средняя, верхняя 
[Ac trans|Ci ing]
-33.1 -37.3 66 -33  1039.6  -1.4  724  334           
12 12.12.17 тихо ()   н/о    6/0 верхняя 
[Ci ing]
-32.6 -36.5 68 -33  1038.1  -1.2  723  333    -30.8       
15 12.12.17 тихо ()   н/о    8/0 верхняя 
[Ci ing]
-32.8 -36.7 68 -33  1037.6  -0.6  723  333           
18 12.12.17 тихо ()   н/о    6/0 верхняя 
[Ci ing]
-31.8 -35.8 68 -32  1038.4  1.1  724  332           
21 12.12.17 тихо ()   н/о    8/0 средняя, верхняя 
[Ac trans|Ci ing]
-31 -35.1 67 -31  1038.8  0.5  724  331           
00 13.12.17 тихо ()   н/о    10/0 средняя, верхняя 
[Ac trans|Ci ing]
-29.2 -33.3 68 -29  1039.3  725  329  -33.2      21  неравномерный
сухой снег
100% 
03 13.12.17 тихо ()   20000 м    10/0 средняя, верхняя 
[Ac trans|Ci ing]
-28.4 -32.7 66 -28  1040.6  1.4  726  328           
06 13.12.17 тихо ()   10 км  слаб. снег  10/0 средняя 
[As op]
-25.7 -30.3 65 -26  1040.1  0.4  726  325           
09 13.12.17 тихо ()   10 км  слаб. снег  10/0 средняя 
[As op]
-25.8 -29.1 74 -26  1040.8  0.6  727  325           
12 13.12.17 тихо ()   н/о  слаб. снег  10/0 средняя 
[As op]
-25.8 -29.3 72 -26  1041.9  728  326    -25.4  0.2     
15 13.12.17 тихо ()   н/о  слаб. снег  10/0 средняя 
[As op]
-25.3 -28.6 74 -25  1042.3  0.5  728  325           
18 13.12.17 тихо ()   н/о  слаб. снег  10/0 средняя 
[As op]
-26 -29.2 74 -26  1042.2  -0.3  728  326           
21 13.12.17 тихо ()   н/о  слаб. снег  10/0 средняя 
[As op]
-26.2 -29.3 75 -26  1042.2  728  326           
00 14.12.17 тихо ()   н/о  {снег}  ясно 
-29.8 -33 74 -30  1043.3  -0.1  728  331  -29.8    0.4  21  неравномерный
сухой снег
100% 
03 14.12.17 тихо ()   20000 м    10/0 средняя, верхняя 
[Ac trans|Ci ing]
-27.5 -30.6 75 -28  1043.6  728  328           
06 14.12.17 тихо ()   20000 м    6/0 верхняя 
[Ci ing]
-22.9 -27.5 66 -23  1041.5  -0.7  728  322           
09 14.12.17 тихо ()   20000 м    10/0 средняя, верхняя 
[Ac trans|Ci ing]
-27.5 -30.1 79 -28  1043.2  0.4  728  328           
12 14.12.17 тихо ()   н/о    6/0 верхняя 
[Ci ing]
-29.4 -32.7 73 -29  1045.5  1.6  729  331    -22.6       
15 14.12.17 тихо ()   н/о    4/0 верхняя 
[Ci ing]
-32.3 -35.7 72 -32  1047.7  1.2  730  336           
18 14.12.17 тихо ()   н/о    4/0 верхняя 
[Ci ing]
-32.3 -36 70 -32  1048.9  731  336           
21 14.12.17 тихо ()   н/о    ясно 
-33.7 -37.5 68 -34  1050.1  0.8  732  338           
00 15.12.17 тихо ()   н/о    3/0 верхняя 
[Ci ing]
-33.4 -37.1 69 -33  1050.8  0.7  732  338  -34.4      21  неравномерный
сухой снег
100% 
Время (UTC), дата Ветер
(°,м/с) 
Видим.   Явления Облачность Т
(°С)
Тd
(°С)
f(%) Тe
(°С)
Pmin
(гПа)
dP
(гПа)
Po
(мм)
O2
(г/м3)
Тmin Tmax R s Состояние
почвы

Для получения пояснительной информации подведите курсор к названию столбца.

ПОГОДА в Кацуге - архив

Всё, что Вы хотите узнать о погоде в Кацуге - удобно и подробно!

Выберите нужную дату (начиная с 1 января 2015* года) и нажмите кнопку "Найти".
Будут отображены архивные сводки погоды по пункту Кацуг, начиная с указанной даты.


Отображать данные в формате CSV (для использования в таблицах Excel)


Внимание! Наш архив погоды предназначен исключительно для личного некоммерческого использования в познавательных целях. Если Вам необходимы официальные справки о состоянии погоды (для производственных, юридических, коммерческих и т.п. целей), обращайтесь в органы Росгидромета.

*Примечание: данная дата относится к архиву по метеостанциям СССР (Россия, СНГ, Балтия).
Архив по метеостанциям Зарубежной Европы и Азии (кроме Китая) хранится 10 дней, по другим регионам земного шара (Китай, Африка, Америка, Австралия, Океания) - 1 день.

Кацуг - район местоположения метеостанции


Название, широта, долгота, высота метеостанции:
Кацуг 54°ш. 105.9°д. 533 м над ур. моря [Российская Федерация]

Дополнительная информация

В oтличие oт бoльшинства пoгoдных сайтoв мы публикуем пoдрoбную метеoинфoрмацию в детальнoм прoфессиoнальнoм фoрмате.

Характеристики температуры и влажнoсти вoздуха измеряются на высoте 2 м в тени вдали oт зданий и деревьев.
Скoрoсть ветра измеряется на высoте 10 м (на урoвне рoста челoвека скoрoсть ветра ниже в 1.5-2 раза). Если метеoстанция нахoдится в гoрoде или в лесу, тo скoрoсть ветра занижена на 2-4 м/с пo сравнению с oткрытым местoм. Скoрoсть ветра над акватoриями крупных рек и oзёр, а также на вершинах хoлмoв на 2-5 м/с выше, чем в oбычных услoвиях.
Атмoсфернoе давление в разных тoчках местнoсти мoжет значительнo oтличаться oт давления на метеoстанции, в зависимoсти oт услoвий рельефа (при пoдъёме на 10 м давление пoнижается примернo на 1 мм рт.ст.).